| time (UTC) | temp F | wind direction | speed MPH | gust MPH | rain 1hr in | rain 24hr in | rain mn in | humidity % | barometer mb |
| 20260904172414 | 79 | 340 | 1.0 | 2.0 | 0.00 | 0.00 | 0.00 | 78 | 1014.2 |
| 20260904171908 | 79 | 48 | 1.0 | 4.0 | 0.00 | 0.00 | 0.00 | 79 | 1014.7 |
| 20260904171404 | 79 | 199 | 0.0 | 2.0 | 0.00 | 0.00 | 0.00 | 80 | 1014.7 |
| 20260904170900 | 79 | 324 | 0.0 | 3.0 | 0.00 | 0.00 | 0.00 | 82 | 1014.8 |
| 20260904170355 | 79 | 154 | 0.0 | 2.0 | 0.00 | 0.00 | 0.00 | 80 | 1015.2 |
| 20260904165850 | 80 | 356 | 3.0 | 7.0 | 0.00 | 0.00 | 0.00 | 78 | 1015.6 |
| 20260904165349 | 79 | 151 | 0.0 | 3.0 | 0.00 | 0.00 | 0.00 | 79 | 1016.1 |
| 20260904164844 | 78 | 40 | 3.0 | 4.0 | 0.00 | 0.00 | 0.00 | 80 | 1016.2 |
| 20260904164343 | 78 | 108 | 3.0 | 4.0 | 0.00 | 0.00 | 0.00 | 82 | 1016.4 |
| 20260904163840 | 77 | 160 | 0.0 | 6.0 | 0.00 | 0.00 | 0.00 | 83 | 1016.4 |
| 20260904163340 | 77 | 331 | 3.0 | 6.0 | 0.00 | 0.00 | 0.00 | 82 | 1016.7 |
| 20260904162839 | 78 | 21 | 1.0 | 5.0 | 0.00 | 0.00 | 0.00 | 82 | 1015.9 |
| 20260904162335 | 78 | 183 | 2.0 | 6.0 | 0.00 | 0.00 | 0.00 | 82 | 1015.6 |
| 20260904161831 | 78 | 34 | 5.0 | 6.0 | 0.00 | 0.00 | 0.00 | 82 | 1015.5 |
| 20260904161331 | 78 | 62 | 1.0 | 7.0 | 0.00 | 0.00 | 0.00 | 81 | 1015.8 |
| 20260904160826 | 78 | 111 | 4.0 | 6.0 | 0.00 | 0.00 | 0.00 | 81 | 1015.8 |
| 20260904160326 | 78 | 262 | 0.0 | 10.0 | 0.00 | 0.00 | 0.00 | 80 | 1015.8 |
| 20260904155821 | 78 | 254 | 2.0 | 5.0 | 0.00 | 0.00 | 0.00 | 82 | 1015.9 |
| 20260904155316 | 78 | 63 | 5.0 | 7.0 | 0.00 | 0.00 | 0.00 | 80 | 1015.9 |
| 20260904154814 | 77 | 103 | 5.0 | 7.0 | 0.00 | 0.00 | 0.00 | 82 | 1015.7 |
| 20260904154309 | 77 | 0 | 3.0 | 6.0 | 0.00 | 0.00 | 0.00 | 83 | 1015.7 |
| 20260904153805 | 77 | 352 | 5.0 | 6.0 | 0.00 | 0.00 | 0.00 | 84 | 1015.7 |
| 20260904153300 | 77 | 319 | 7.0 | 7.0 | 0.00 | 0.00 | 0.00 | 83 | 1015.7 |
| 20260904152757 | 77 | 348 | 8.0 | 11.0 | 0.00 | 0.00 | 0.00 | 83 | 1015.7 |
| 20260904152251 | 77 | 92 | 1.0 | 9.0 | 0.00 | 0.00 | 0.00 | 83 | 1015.8 |
| 20260904151746 | 78 | 54 | 1.0 | 4.0 | 0.00 | 0.00 | 0.00 | 84 | 1015.6 |
| 20260904151245 | 78 | 22 | 2.0 | 8.0 | 0.00 | 0.00 | 0.00 | 83 | 1015.6 |
| 20260904150742 | 78 | 318 | 4.0 | 6.0 | 0.00 | 0.00 | 0.00 | 82 | 1015.6 |
| 20260904150236 | 79 | 52 | 0.0 | 6.0 | 0.00 | 0.00 | 0.00 | 83 | 1015.3 |
| 20260904145734 | 80 | 348 | 2.0 | 8.0 | 0.00 | 0.00 | 0.00 | 82 | 1015.4 |
| 20260904145230 | 80 | 350 | 2.0 | 4.0 | 0.00 | 0.00 | 0.00 | 80 | 1014.6 |
| 20260904144725 | 79 | 176 | 2.0 | 4.0 | 0.00 | 0.00 | 0.00 | 84 | 1014.7 |
| 20260904144221 | 79 | 13 | 2.0 | 4.0 | 0.00 | 0.00 | 0.00 | 84 | 1014.6 |
| 20260904143716 | 78 | 287 | 0.0 | 4.0 | 0.00 | 0.00 | 0.00 | 84 | 1014.6 |
| 20260904143214 | 78 | 8 | 7.0 | 7.0 | 0.00 | 0.00 | 0.00 | 84 | 1014.3 |
| 20260904142710 | 78 | 88 | 4.0 | 6.0 | 0.00 | 0.00 | 0.00 | 84 | 1014.5 |
| 20260904142205 | 78 | 100 | 3.0 | 4.0 | 0.00 | 0.00 | 0.00 | 85 | 1014.5 |
| 20260904141705 | 78 | 34 | 3.0 | 7.0 | 0.00 | 0.00 | 0.00 | 84 | 1014.4 |
| 20260904141200 | 78 | 209 | 1.0 | 3.0 | 0.00 | 0.00 | 0.00 | 86 | 1014.5 |
| 20260904140656 | 77 | 321 | 2.0 | 7.0 | 0.00 | 0.00 | 0.00 | 86 | 1014.7 |
| 20260904140151 | 77 | 51 | 3.0 | 6.0 | 0.00 | 0.00 | 0.00 | 86 | 1014.5 |
| 20260904135650 | 77 | 48 | 1.0 | 9.0 | 0.00 | 0.00 | 0.00 | 86 | 1014.4 |
| 20260904135146 | 78 | 24 | 3.0 | 9.0 | 0.00 | 0.00 | 0.00 | 84 | 1014.5 |
| 20260904134641 | 77 | 98 | 1.0 | 3.0 | 0.00 | 0.00 | 0.00 | 86 | 1014.2 |
| 20260904134140 | 77 | 175 | 0.0 | 4.0 | 0.00 | 0.00 | 0.00 | 86 | 1014.2 |
| 20260904133636 | 76 | 280 | 2.0 | 5.0 | 0.00 | 0.00 | 0.00 | 87 | 1014.5 |
| 20260904133131 | 76 | 98 | 2.0 | 6.0 | 0.00 | 0.00 | 0.00 | 87 | 1014.5 |
| 20260904132626 | 76 | 47 | 1.0 | 2.0 | 0.00 | 0.00 | 0.00 | 88 | 1014.2 |
| 20260904132126 | 76 | 20 | 0.0 | 4.0 | 0.00 | 0.00 | 0.00 | 87 | 1014.3 |
| 20260904131625 | 76 | 34 | 2.0 | 4.0 | 0.00 | 0.00 | 0.00 | 86 | 1014.4 |
| 20260904131121 | 76 | 107 | 3.0 | 3.0 | 0.00 | 0.00 | 0.00 | 86 | 1014.4 |
| 20260904130620 | 76 | 85 | 2.0 | 3.0 | 0.00 | 0.00 | 0.00 | 86 | 1014.0 |
| 20260904130115 | 76 | 142 | 0.0 | 3.0 | 0.00 | 0.00 | 0.00 | 86 | 1013.8 |
| 20260904125613 | 75 | 334 | 2.0 | 4.0 | 0.00 | 0.00 | 0.00 | 88 | 1013.9 |
| 20260904125113 | 75 | 66 | 2.0 | 3.0 | 0.00 | 0.00 | 0.00 | 90 | 1013.7 |
| 20260904124608 | 75 | 100 | 4.0 | 5.0 | 0.00 | 0.00 | 0.00 | 90 | 1013.5 |
| 20260904124103 | 75 | 86 | 2.0 | 4.0 | 0.00 | 0.00 | 0.00 | 91 | 1013.5 |
| 20260904123603 | 75 | 115 | 2.0 | 2.0 | 0.00 | 0.00 | 0.00 | 92 | 1013.7 |
| 20260904123059 | 75 | 70 | 0.0 | 6.0 | 0.00 | 0.00 | 0.00 | 93 | 1013.4 |
| 20260904122559 | 75 | 94 | 1.0 | 5.0 | 0.00 | 0.00 | 0.00 | 94 | 1013.6 |
| 20260904122054 | 75 | 3 | 3.0 | 6.0 | 0.00 | 0.00 | 0.00 | 94 | 1013.3 |
| 20260904121550 | 74 | 51 | 0.0 | 5.0 | 0.00 | 0.00 | 0.00 | 96 | 1013.0 |
| 20260904121046 | 74 | 56 | 1.0 | 4.0 | 0.00 | 0.00 | 0.00 | 97 | 1013.0 |
| 20260904120542 | 74 | 37 | 0.0 | 2.0 | 0.00 | 0.00 | 0.00 | 97 | 1012.9 |
| 20260904120037 | 73 | 12 | 3.0 | 4.0 | 0.00 | 0.00 | 0.00 | 97 | 1013.0 |
| 20260904115537 | 73 | 114 | 0.0 | 3.0 | 0.00 | 0.00 | 0.00 | 98 | 1012.9 |
| 20260904115032 | 73 | 100 | 2.0 | 2.0 | 0.00 | 0.00 | 0.00 | 97 | 1012.7 |
| 20260904114527 | 73 | 65 | 0.0 | 3.0 | 0.00 | 0.00 | 0.00 | 97 | 1012.6 |
| 20260904114027 | 73 | 81 | 2.0 | 2.0 | 0.00 | 0.00 | 0.00 | 97 | 1012.6 |
| 20260904113527 | 73 | 37 | 1.0 | 2.0 | 0.00 | 0.00 | 0.00 | 97 | 1012.3 |
| 20260904113027 | 73 | 67 | 2.0 | 2.0 | 0.00 | 0.00 | 0.00 | 97 | 1012.3 |
| 20260904112522 | 73 | 3 | 2.0 | 3.0 | 0.00 | 0.00 | 0.00 | 97 | 1011.9 |
| 20260904112018 | 73 | 81 | 1.0 | 2.0 | 0.00 | 0.00 | 0.00 | 97 | 1012.0 |
| 20260904111514 | 73 | 78 | 2.0 | 3.0 | 0.00 | 0.00 | 0.00 | 97 | 1011.8 |
| 20260904111009 | 73 | 69 | 2.0 | 2.0 | 0.00 | 0.00 | 0.00 | 97 | 1012.0 |
| 20260904110508 | 73 | 114 | 0.0 | 1.0 | 0.00 | 0.00 | 0.00 | 97 | 1011.8 |
| 20260904110004 | 73 | 67 | 0.0 | 2.0 | 0.00 | 0.00 | 0.00 | 97 | 1011.6 |
| 20260904105458 | 73 | 37 | 0.0 | 1.0 | 0.00 | 0.00 | 0.00 | 97 | 1011.7 |
| 20260904104953 | 73 | 117 | 0.0 | 0.0 | 0.00 | 0.00 | 0.00 | 97 | 1011.8 |
| 20260904104448 | 74 | 57 | 0.0 | 2.0 | 0.00 | 0.00 | 0.00 | 96 | 1011.9 |
| 20260904103944 | 74 | 62 | 1.0 | 2.0 | 0.00 | 0.00 | 0.00 | 96 | 1011.8 |
| 20260904103440 | 74 | 63 | 1.0 | 2.0 | 0.00 | 0.00 | 0.00 | 96 | 1011.7 |
| 20260904102936 | 74 | 74 | 1.0 | 2.0 | 0.00 | 0.00 | 0.00 | 96 | 1011.7 |
| 20260904102431 | 74 | 75 | 1.0 | 2.0 | 0.00 | 0.00 | 0.00 | 96 | 1011.9 |
| 20260904101927 | 74 | 61 | 0.0 | 2.0 | 0.00 | 0.00 | 0.00 | 96 | 1011.6 |
| 20260904101423 | 75 | 46 | 1.0 | 2.0 | 0.00 | 0.00 | 0.00 | 95 | 1011.7 |
| 20260904100919 | 75 | 72 | 1.0 | 1.0 | 0.00 | 0.00 | 0.00 | 95 | 1011.7 |
| 20260904100415 | 75 | 47 | 0.0 | 2.0 | 0.00 | 0.00 | 0.00 | 95 | 1011.4 |
| 20260904095914 | 75 | 49 | 1.0 | 2.0 | 0.00 | 0.00 | 0.00 | 95 | 1011.4 |
| 20260904095409 | 75 | 71 | 2.0 | 2.0 | 0.00 | 0.00 | 0.00 | 95 | 1011.3 |
| 20260904094904 | 75 | 58 | 2.0 | 2.0 | 0.00 | 0.00 | 0.00 | 95 | 1011.4 |
| 20260904094359 | 75 | 77 | 0.0 | 1.0 | 0.00 | 0.00 | 0.00 | 95 | 1011.4 |
| 20260904093855 | 75 | 6 | 0.0 | 1.0 | 0.00 | 0.00 | 0.00 | 95 | 1011.4 |
| 20260904093355 | 76 | 38 | 0.0 | 0.0 | 0.00 | 0.00 | 0.00 | 95 | 1011.2 |
| 20260904092851 | 76 | 161 | 0.0 | 1.0 | 0.00 | 0.00 | 0.00 | 96 | 1011.1 |
| 20260904092347 | 75 | 164 | 0.0 | 1.0 | 0.00 | 0.00 | 0.00 | 97 | 1011.2 |
| 20260904091843 | 75 | 118 | 0.0 | 1.0 | 0.00 | 0.00 | 0.00 | 97 | 1011.5 |
| 20260904091338 | 75 | 42 | 0.0 | 2.0 | 0.00 | 0.00 | 0.00 | 97 | 1011.4 |
| 20260904090833 | 75 | 50 | 0.0 | 1.0 | 0.00 | 0.00 | 0.00 | 98 | 1011.4 |
| 20260904090329 | 75 | 202 | 0.0 | 1.0 | 0.00 | 0.00 | 0.00 | 98 | 1011.3 |
| 20260904085824 | 75 | 176 | 1.0 | 2.0 | 0.00 | 0.00 | 0.00 | 98 | 1011.4 |
| 20260904085319 | 74 | 172 | 0.0 | 1.0 | 0.00 | 0.00 | 0.00 | 98 | 1011.3 |
| 20260904084814 | 74 | 157 | 0.0 | 0.0 | 0.00 | 0.00 | 0.00 | 98 | 1011.4 |
| 20260904084310 | 74 | 149 | 0.0 | 1.0 | 0.00 | 0.00 | 0.00 | 98 | 1011.7 |
| 20260904083806 | 74 | 138 | 0.0 | 1.0 | 0.00 | 0.00 | 0.00 | 98 | 1012.0 |
| 20260904083303 | 73 | 107 | 0.0 | 0.0 | 0.00 | 0.00 | 0.00 | 98 | 1012.3 |
| 20260904082803 | 73 | 71 | 1.0 | 2.0 | 0.00 | 0.00 | 0.00 | 98 | 1012.5 |
| 20260904082258 | 73 | 77 | 1.0 | 2.0 | 0.00 | 0.00 | 0.00 | 98 | 1012.5 |
| 20260904081753 | 73 | 54 | 2.0 | 2.0 | 0.00 | 0.00 | 0.00 | 97 | 1012.4 |
| 20260904081248 | 73 | 49 | 2.0 | 2.0 | 0.00 | 0.00 | 0.00 | 97 | 1012.4 |
| 20260904080744 | 73 | 77 | 1.0 | 2.0 | 0.00 | 0.00 | 0.00 | 97 | 1012.2 |
| 20260904080239 | 73 | 54 | 0.0 | 2.0 | 0.00 | 0.00 | 0.00 | 97 | 1012.2 |
| 20260904075736 | 73 | 51 | 0.0 | 2.0 | 0.00 | 0.00 | 0.00 | 97 | 1012.0 |
| 20260904075231 | 73 | 25 | 2.0 | 2.0 | 0.00 | 0.00 | 0.00 | 97 | 1012.0 |
| 20260904074730 | 73 | 72 | 0.0 | 2.0 | 0.00 | 0.00 | 0.00 | 97 | 1012.0 |
| 20260904074224 | 73 | 78 | 1.0 | 2.0 | 0.00 | 0.00 | 0.00 | 97 | 1011.9 |
| 20260904073720 | 73 | 87 | 1.0 | 2.0 | 0.00 | 0.00 | 0.00 | 97 | 1011.7 |
| 20260904073216 | 73 | 40 | 1.0 | 2.0 | 0.00 | 0.00 | 0.00 | 97 | 1011.8 |
| 20260904072712 | 73 | 79 | 0.0 | 2.0 | 0.00 | 0.00 | 0.00 | 97 | 1011.6 |
| 20260904072212 | 73 | 79 | 1.0 | 2.0 | 0.00 | 0.00 | 0.00 | 96 | 1011.7 |
| 20260904071708 | 73 | 39 | 2.0 | 2.0 | 0.00 | 0.00 | 0.00 | 96 | 1011.5 |
| 20260904071203 | 73 | 51 | 0.0 | 1.0 | 0.00 | 0.00 | 0.00 | 96 | 1011.3 |
| 20260904070702 | 73 | 52 | 0.0 | 1.0 | 0.00 | 0.00 | 0.00 | 96 | 1011.4 |
| 20260904070201 | 74 | 50 | 0.0 | 1.0 | 0.00 | 0.00 | 0.00 | 96 | 1011.7 |
| 20260904065656 | 73 | 80 | 0.0 | 1.0 | 0.00 | 0.00 | 0.00 | 97 | 1011.5 |
| 20260904065154 | 73 | 58 | 0.0 | 1.0 | 0.00 | 0.00 | 0.00 | 97 | 1011.8 |
| 20260904064653 | 73 | 58 | 0.0 | 1.0 | 0.00 | 0.00 | 0.00 | 97 | 1011.8 |
| 20260904064148 | 73 | 89 | 0.0 | 1.0 | 0.00 | 0.00 | 0.00 | 97 | 1012.0 |
| 20260904063644 | 73 | 81 | 0.0 | 1.0 | 0.00 | 0.00 | 0.00 | 97 | 1011.8 |
| 20260904063140 | 73 | 113 | 0.0 | 1.0 | 0.00 | 0.00 | 0.00 | 96 | 1011.9 |
| 20260904062636 | 73 | 89 | 0.0 | 0.0 | 0.00 | 0.00 | 0.00 | 96 | 1011.9 |
| 20260904062131 | 73 | 62 | 0.0 | 1.0 | 0.00 | 0.00 | 0.00 | 96 | 1012.0 |
| 20260904061627 | 73 | 105 | 0.0 | 1.0 | 0.00 | 0.00 | 0.00 | 96 | 1012.5 |
| 20260904061123 | 73 | 50 | 0.0 | 1.0 | 0.00 | 0.00 | 0.00 | 96 | 1012.5 |
| 20260904060619 | 73 | 50 | 0.0 | 2.0 | 0.00 | 0.00 | 0.00 | 96 | 1012.8 |
| 20260904060116 | 73 | 37 | 0.0 | 0.0 | 0.00 | 0.00 | 0.00 | 96 | 1012.8 |
| 20260904055615 | 73 | 55 | 0.0 | 1.0 | 0.00 | 0.00 | 0.00 | 96 | 1012.8 |
| 20260904055111 | 73 | 52 | 0.0 | 1.0 | 0.00 | 0.00 | 0.00 | 96 | 1013.2 |
| 20260904054606 | 73 | 89 | 0.0 | 1.0 | 0.00 | 0.00 | 0.00 | 96 | 1013.0 |
| 20260904054102 | 73 | 92 | 0.0 | 1.0 | 0.00 | 0.00 | 0.00 | 96 | 1013.1 |
| 20260904053601 | 73 | 58 | 1.0 | 2.0 | 0.00 | 0.00 | 0.00 | 96 | 1013.1 |
| 20260904053057 | 73 | 49 | 0.0 | 2.0 | 0.00 | 0.00 | 0.00 | 95 | 1013.1 |
| 20260904052554 | 73 | 343 | 0.0 | 1.0 | 0.00 | 0.00 | 0.00 | 95 | 1013.1 |
| 20260904052049 | 73 | 66 | 1.0 | 2.0 | 0.00 | 0.00 | 0.00 | 95 | 1013.0 |
| 20260904051545 | 73 | 84 | 0.0 | 2.0 | 0.00 | 0.00 | 0.00 | 95 | 1013.0 |
| 20260904051044 | 73 | 62 | 0.0 | 1.0 | 0.00 | 0.00 | 0.00 | 95 | 1013.1 |
| 20260904050541 | 73 | 129 | 0.0 | 0.0 | 0.00 | 0.00 | 0.00 | 95 | 1013.0 |
| 20260904050037 | 73 | 74 | 1.0 | 2.0 | 0.00 | 0.16 | 0.16 | 95 | 1013.2 |
| 20260904045532 | 73 | 0 | 0.0 | 2.0 | 0.00 | 0.16 | 0.16 | 94 | 1013.0 |
| 20260904045026 | 73 | 89 | 0.0 | 2.0 | 0.00 | 0.16 | 0.16 | 94 | 1012.8 |
| 20260904044522 | 73 | 55 | 0.0 | 1.0 | 0.00 | 0.16 | 0.16 | 94 | 1013.0 |
| 20260904044018 | 73 | 89 | 0.0 | 0.0 | 0.00 | 0.16 | 0.16 | 94 | 1013.0 |
| 20260904043514 | 73 | 44 | 0.0 | 1.0 | 0.00 | 0.16 | 0.16 | 93 | 1013.1 |
| 20260904043010 | 73 | 25 | 0.0 | 1.0 | 0.00 | 0.16 | 0.16 | 93 | 1013.0 |
| 20260904042506 | 74 | 66 | 0.0 | 1.0 | 0.00 | 0.16 | 0.16 | 93 | 1012.7 |
| 20260904042001 | 74 | 67 | 0.0 | 1.0 | 0.00 | 0.16 | 0.16 | 93 | 1012.8 |
| 20260904041457 | 74 | 60 | 0.0 | 1.0 | 0.00 | 0.16 | 0.16 | 92 | 1012.8 |
| 20260904040953 | 74 | 44 | 0.0 | 0.0 | 0.00 | 0.16 | 0.16 | 92 | 1013.0 |
| 20260904040452 | 74 | 42 | 0.0 | 1.0 | 0.00 | 0.16 | 0.16 | 92 | 1013.1 |
| 20260904035948 | 74 | 76 | 0.0 | 0.0 | 0.00 | 0.16 | 0.16 | 92 | 1013.0 |
| 20260904035444 | 74 | 85 | 0.0 | 2.0 | 0.00 | 0.16 | 0.16 | 91 | 1013.0 |
| 20260904034944 | 74 | 74 | 1.0 | 2.0 | 0.00 | 0.16 | 0.16 | 91 | 1013.1 |
| 20260904034439 | 74 | 89 | 0.0 | 2.0 | 0.00 | 0.16 | 0.16 | 91 | 1013.1 |
| 20260904033935 | 74 | 52 | 1.0 | 1.0 | 0.00 | 0.16 | 0.16 | 90 | 1012.9 |
| 20260904033431 | 75 | 84 | 0.0 | 0.0 | 0.00 | 0.16 | 0.16 | 90 | 1013.3 |
| 20260904032927 | 75 | 57 | 0.0 | 2.0 | 0.00 | 0.16 | 0.16 | 90 | 1013.3 |
| 20260904032422 | 75 | 56 | 0.0 | 2.0 | 0.00 | 0.16 | 0.16 | 89 | 1013.4 |
| 20260904031916 | 75 | 73 | 0.0 | 2.0 | 0.00 | 0.16 | 0.16 | 89 | 1013.2 |
| 20260904031411 | 75 | 66 | 0.0 | 1.0 | 0.00 | 0.16 | 0.16 | 89 | 1013.3 |
| 20260904030907 | 75 | 73 | 1.0 | 4.0 | 0.00 | 0.16 | 0.16 | 89 | 1013.4 |
| 20260904030402 | 75 | 44 | 0.0 | 2.0 | 0.00 | 0.16 | 0.16 | 89 | 1013.2 |
| 20260904025902 | 75 | 54 | 2.0 | 2.0 | 0.00 | 0.16 | 0.16 | 89 | 1013.3 |
| 20260904025359 | 75 | 62 | 0.0 | 2.0 | 0.00 | 0.16 | 0.16 | 89 | 1013.2 |
| 20260904024858 | 75 | 46 | 0.0 | 1.0 | 0.00 | 0.16 | 0.16 | 88 | 1013.4 |
| 20260904024353 | 75 | 351 | 0.0 | 1.0 | 0.00 | 0.16 | 0.16 | 88 | 1013.3 |
| 20260904023850 | 75 | 85 | 1.0 | 2.0 | 0.00 | 0.16 | 0.16 | 88 | 1013.5 |
| 20260904023346 | 76 | 81 | 1.0 | 2.0 | 0.00 | 0.16 | 0.16 | 87 | 1013.2 |
| 20260904022844 | 76 | 98 | 0.0 | 2.0 | 0.00 | 0.16 | 0.16 | 87 | 1013.2 |
| 20260904022342 | 76 | 69 | 1.0 | 2.0 | 0.00 | 0.16 | 0.16 | 87 | 1013.2 |
| 20260904021839 | 76 | 62 | 0.0 | 1.0 | 0.00 | 0.16 | 0.16 | 87 | 1013.2 |
| 20260904021338 | 76 | 110 | 0.0 | 0.0 | 0.00 | 0.16 | 0.16 | 87 | 1012.9 |
| 20260904020834 | 76 | 69 | 0.0 | 2.0 | 0.00 | 0.16 | 0.16 | 87 | 1013.1 |
| 20260904020329 | 76 | 40 | 0.0 | 2.0 | 0.00 | 0.16 | 0.16 | 88 | 1013.1 |
| 20260904015827 | 76 | 64 | 2.0 | 2.0 | 0.00 | 0.16 | 0.16 | 87 | 1013.0 |
| 20260904015323 | 76 | 19 | 2.0 | 3.0 | 0.00 | 0.16 | 0.16 | 87 | 1012.9 |
| 20260904014821 | 76 | 45 | 2.0 | 3.0 | 0.00 | 0.16 | 0.16 | 87 | 1012.8 |
| 20260904014317 | 76 | 56 | 0.0 | 2.0 | 0.00 | 0.16 | 0.16 | 86 | 1012.6 |
| 20260904013813 | 76 | 37 | 0.0 | 1.0 | 0.00 | 0.16 | 0.16 | 85 | 1012.6 |
| 20260904013309 | 76 | 37 | 0.0 | 0.0 | 0.00 | 0.16 | 0.16 | 85 | 1012.5 |
| 20260904012805 | 76 | 85 | 0.0 | 1.0 | 0.00 | 0.16 | 0.16 | 85 | 1012.5 |
| 20260904012306 | 77 | 76 | 0.0 | 1.0 | 0.00 | 0.16 | 0.16 | 85 | 1012.7 |
| 20260904011804 | 77 | 30 | 1.0 | 2.0 | 0.00 | 0.16 | 0.16 | 84 | 1012.8 |
| 20260904011259 | 77 | 53 | 2.0 | 2.0 | 0.00 | 0.16 | 0.16 | 84 | 1012.5 |
| 20260904010759 | 77 | 80 | 0.0 | 0.0 | 0.00 | 0.16 | 0.16 | 82 | 1012.5 |
| 20260904010257 | 77 | 33 | 0.0 | 1.0 | 0.00 | 0.16 | 0.16 | 83 | 1012.3 |
| 20260904005757 | 78 | 16 | 0.0 | 1.0 | 0.00 | 0.16 | 0.16 | 83 | 1012.5 |
| 20260904005253 | 78 | 27 | 1.0 | 2.0 | 0.00 | 0.16 | 0.16 | 82 | 1012.2 |
| 20260904004747 | 79 | 49 | 1.0 | 1.0 | 0.00 | 0.16 | 0.16 | 80 | 1012.2 |
| 20260904004243 | 79 | 22 | 0.0 | 1.0 | 0.00 | 0.16 | 0.16 | 79 | 1011.8 |
| 20260904003738 | 80 | 48 | 1.0 | 2.0 | 0.00 | 0.16 | 0.16 | 78 | 1011.8 |
| 20260904003234 | 80 | 58 | 1.0 | 1.0 | 0.00 | 0.16 | 0.16 | 75 | 1011.7 |
| 20260904002729 | 81 | 50 | 1.0 | 1.0 | 0.00 | 0.16 | 0.16 | 75 | 1011.4 |
| 20260904002226 | 81 | 17 | 0.0 | 0.0 | 0.00 | 0.16 | 0.16 | 73 | 1011.5 |
| 20260904001720 | 82 | 334 | 1.0 | 1.0 | 0.00 | 0.16 | 0.16 | 72 | 1011.5 |
| 20260904001219 | 82 | 89 | 3.0 | 3.0 | 0.00 | 0.16 | 0.16 | 72 | 1011.3 |
| 20260904000715 | 82 | 67 | 1.0 | 2.0 | 0.00 | 0.16 | 0.16 | 74 | 1011.4 |
| 20260904000211 | 83 | 315 | 0.0 | 2.0 | 0.00 | 0.16 | 0.16 | 72 | 1011.5 |
| 20260903235709 | 83 | 94 | 1.0 | 2.0 | 0.00 | 0.16 | 0.16 | 71 | 1011.6 |
| 20260903235206 | 84 | 341 | 1.0 | 3.0 | 0.00 | 0.16 | 0.16 | 71 | 1011.7 |
| 20260903234659 | 84 | 76 | 0.0 | 0.0 | 0.00 | 0.16 | 0.16 | 70 | 1011.6 |
| 20260903234156 | 84 | 34 | 2.0 | 2.0 | 0.00 | 0.16 | 0.16 | 69 | 1011.8 |
| 20260903233652 | 84 | 205 | 0.0 | 2.0 | 0.00 | 0.16 | 0.16 | 68 | 1011.3 |
| 20260903233148 | 85 | 22 | 0.0 | 1.0 | 0.00 | 0.16 | 0.16 | 67 | 1011.4 |
| 20260903232647 | 85 | 13 | 0.0 | 2.0 | 0.00 | 0.16 | 0.16 | 67 | 1011.4 |
| 20260903232143 | 85 | 10 | 0.0 | 1.0 | 0.00 | 0.16 | 0.16 | 67 | 1011.6 |
| 20260903231642 | 85 | 339 | 0.0 | 2.0 | 0.00 | 0.16 | 0.16 | 67 | 1011.7 |
| 20260903231137 | 86 | 235 | 0.0 | 1.0 | 0.00 | 0.16 | 0.16 | 67 | 1011.6 |
| 20260903230633 | 86 | 39 | 1.0 | 1.0 | 0.00 | 0.16 | 0.16 | 71 | 1011.7 |
| 20260903230132 | 86 | 305 | 0.0 | 1.0 | 0.00 | 0.16 | 0.16 | 71 | 1011.6 |
| 20260903225629 | 86 | 326 | 0.0 | 1.0 | 0.00 | 0.16 | 0.16 | 72 | 1011.7 |
| 20260903225125 | 86 | 6 | 0.0 | 1.0 | 0.00 | 0.16 | 0.16 | 72 | 1011.6 |
| 20260903224621 | 86 | 310 | 0.0 | 1.0 | 0.00 | 0.16 | 0.16 | 72 | 1011.8 |
| 20260903224117 | 87 | 355 | 0.0 | 2.0 | 0.00 | 0.16 | 0.16 | 71 | 1011.8 |
| 20260903223612 | 87 | 214 | 0.0 | 3.0 | 0.00 | 0.16 | 0.16 | 70 | 1012.0 |
| 20260903223110 | 87 | 81 | 0.0 | 2.0 | 0.00 | 0.16 | 0.16 | 69 | 1011.8 |
| 20260903222606 | 87 | 22 | 0.0 | 0.0 | 0.00 | 0.16 | 0.16 | 68 | 1011.7 |
| 20260903222104 | 87 | 322 | 0.0 | 0.0 | 0.00 | 0.16 | 0.16 | 70 | 1011.7 |
| 20260903221600 | 87 | 235 | 0.0 | 0.0 | 0.00 | 0.16 | 0.16 | 70 | 1011.8 |
| 20260903221058 | 87 | 295 | 1.0 | 2.0 | 0.00 | 0.16 | 0.16 | 69 | 1012.0 |
| 20260903220557 | 87 | 309 | 0.0 | 0.0 | 0.00 | 0.16 | 0.16 | 71 | 1012.0 |
| 20260903220056 | 87 | 309 | 0.0 | 0.0 | 0.00 | 0.16 | 0.16 | 70 | 1012.0 |
| 20260903215555 | 87 | 279 | 0.0 | 1.0 | 0.00 | 0.16 | 0.16 | 71 | 1012.3 |
| 20260903215050 | 87 | 306 | 1.0 | 2.0 | 0.00 | 0.16 | 0.16 | 71 | 1012.2 |
| 20260903214549 | 86 | 329 | 0.0 | 3.0 | 0.00 | 0.16 | 0.16 | 72 | 1012.2 |
| 20260903214044 | 86 | 4 | 2.0 | 2.0 | 0.00 | 0.16 | 0.16 | 72 | 1012.2 |
| 20260903213540 | 87 | 348 | 2.0 | 2.0 | 0.00 | 0.16 | 0.16 | 72 | 1012.2 |
| 20260903213035 | 87 | 299 | 0.0 | 2.0 | 0.00 | 0.16 | 0.16 | 70 | 1012.2 |
| 20260903212531 | 87 | 116 | 0.0 | 2.0 | 0.00 | 0.16 | 0.16 | 69 | 1012.2 |
| 20260903212026 | 86 | 32 | 0.0 | 2.0 | 0.00 | 0.16 | 0.16 | 70 | 1012.2 |
| 20260903211521 | 86 | 343 | 1.0 | 3.0 | 0.00 | 0.16 | 0.16 | 72 | 1012.3 |
| 20260903211018 | 85 | 333 | 0.0 | 1.0 | 0.00 | 0.16 | 0.16 | 73 | 1012.2 |
| 20260903210519 | 85 | 336 | 0.0 | 0.0 | 0.00 | 0.16 | 0.16 | 71 | 1012.4 |
| 20260903210015 | 85 | 338 | 1.0 | 2.0 | 0.00 | 0.16 | 0.16 | 71 | 1012.3 |
| 20260903205514 | 85 | 281 | 0.0 | 2.0 | 0.00 | 0.16 | 0.16 | 71 | 1012.3 |
| 20260903205008 | 85 | 322 | 1.0 | 3.0 | 0.00 | 0.16 | 0.16 | 72 | 1012.6 |
| 20260903204504 | 85 | 76 | 0.0 | 2.0 | 0.00 | 0.16 | 0.16 | 74 | 1012.3 |
| 20260903203959 | 84 | 91 | 2.0 | 5.0 | 0.00 | 0.16 | 0.16 | 71 | 1012.3 |
| 20260903203455 | 84 | 82 | 0.0 | 8.0 | 0.00 | 0.16 | 0.16 | 73 | 1012.6 |
| 20260903202954 | 85 | 29 | 1.0 | 2.0 | 0.00 | 0.16 | 0.16 | 74 | 1012.6 |
| 20260903202451 | 84 | 25 | 2.0 | 3.0 | 0.00 | 0.16 | 0.16 | 72 | 1012.8 |
| 20260903201951 | 84 | 12 | 3.0 | 3.0 | 0.00 | 0.16 | 0.16 | 74 | 1012.6 |
| 20260903201446 | 84 | 40 | 2.0 | 3.0 | 0.00 | 0.16 | 0.16 | 74 | 1012.9 |
| 20260903200944 | 84 | 69 | 2.0 | 2.0 | 0.00 | 0.16 | 0.16 | 73 | 1012.8 |
| 20260903200440 | 84 | 12 | 0.0 | 4.0 | 0.00 | 0.16 | 0.16 | 74 | 1013.0 |
| 20260903195935 | 84 | 338 | 1.0 | 3.0 | 0.00 | 0.16 | 0.16 | 74 | 1012.9 |
| 20260903195431 | 84 | 350 | 2.0 | 3.0 | 0.00 | 0.16 | 0.16 | 71 | 1013.1 |
| 20260903194926 | 84 | 351 | 0.0 | 4.0 | 0.00 | 0.16 | 0.16 | 72 | 1013.3 |
| 20260903194421 | 84 | 299 | 2.0 | 4.0 | 0.00 | 0.16 | 0.16 | 72 | 1012.9 |
| 20260903193916 | 84 | 306 | 0.0 | 1.0 | 0.00 | 0.16 | 0.16 | 73 | 1012.9 |
| 20260903193413 | 84 | 289 | 2.0 | 2.0 | 0.00 | 0.16 | 0.16 | 74 | 1012.9 |
| 20260903192907 | 83 | 11 | 0.0 | 1.0 | 0.00 | 0.16 | 0.16 | 77 | 1013.0 |
| 20260903192404 | 82 | 284 | 1.0 | 1.0 | 0.00 | 0.16 | 0.16 | 77 | 1012.9 |
| 20260903191900 | 83 | 256 | 0.0 | 0.0 | 0.00 | 0.16 | 0.16 | 76 | 1012.9 |
| 20260903191356 | 83 | 291 | 0.0 | 3.0 | 0.00 | 0.16 | 0.16 | 75 | 1013.1 |
| 20260903190855 | 84 | 164 | 1.0 | 3.0 | 0.00 | 0.16 | 0.16 | 73 | 1013.0 |
| 20260903190349 | 83 | 110 | 0.0 | 2.0 | 0.00 | 0.16 | 0.16 | 73 | 1013.0 |
| 20260903185849 | 83 | 180 | 0.0 | 1.0 | 0.00 | 0.16 | 0.16 | 75 | 1013.1 |
| 20260903185344 | 83 | 42 | 1.0 | 4.0 | 0.00 | 0.16 | 0.16 | 75 | 1012.9 |
| 20260903184840 | 83 | 83 | 2.0 | 2.0 | 0.00 | 0.16 | 0.16 | 76 | 1013.1 |
| 20260903184337 | 82 | 343 | 0.0 | 0.0 | 0.00 | 0.16 | 0.16 | 75 | 1013.2 |
| 20260903183832 | 82 | 58 | 2.0 | 2.0 | 0.00 | 0.16 | 0.16 | 76 | 1013.3 |
| 20260903183332 | 81 | 193 | 0.0 | 2.0 | 0.00 | 0.16 | 0.16 | 84 | 1013.4 |
| 20260903182831 | 80 | 325 | 0.0 | 3.0 | 0.00 | 0.16 | 0.16 | 79 | 1013.4 |
| 20260903182330 | 79 | 164 | 0.0 | 1.0 | 0.00 | 0.16 | 0.16 | 80 | 1013.2 |
| 20260903181825 | 79 | 339 | 0.0 | 2.0 | 0.00 | 0.16 | 0.16 | 79 | 1013.7 |
| 20260903181320 | 79 | 333 | 0.0 | 0.0 | 0.00 | 0.16 | 0.16 | 82 | 1013.6 |
| 20260903180820 | 78 | 8 | 1.0 | 4.0 | 0.00 | 0.16 | 0.16 | 81 | 1013.7 |
| 20260903180320 | 78 | 65 | 2.0 | 2.0 | 0.00 | 0.16 | 0.16 | 82 | 1013.7 |
| 20260903175819 | 78 | 166 | 0.0 | 2.0 | 0.00 | 0.16 | 0.16 | 83 | 1013.7 |
| 20260903175318 | 78 | 11 | 3.0 | 4.0 | 0.00 | 0.16 | 0.16 | 83 | 1014.1 |
| 20260903174814 | 78 | 3 | 2.0 | 5.0 | 0.00 | 0.16 | 0.16 | 82 | 1014.2 |
| 20260903174309 | 77 | 55 | 0.0 | 2.0 | 0.00 | 0.16 | 0.16 | 87 | 1014.1 |
| 20260903173808 | 77 | 37 | 0.0 | 3.0 | 0.00 | 0.16 | 0.16 | 85 | 1014.0 |
| 20260903173304 | 77 | 335 | 2.0 | 4.0 | 0.00 | 0.16 | 0.16 | 84 | 1014.4 |
| 20260903172800 | 77 | 311 | 2.0 | 4.0 | 0.00 | 0.16 | 0.16 | 85 | 1014.2 |